Temperature
17 17 17 17 17 17 17 17 17 16 16 16 16 16 16 16 15 15 15 15 15 15 15 15 15 15 15 15 15 15 15 15 16 16 16 15 14 15 15 14 14 14 14
17 17 17 17 17 17 17 17 17 16 16 16 16 16 16 15 15 15 15 15 15 15 15 15 15 15 14 15 15 15 15 15 15 15 15 15 14 14 14 14 14 15 14
17 17 17 17 17 17 17 17 17 16 16 16 16 16 16 16 16 15 15 15 15 15 15 15 15 14 14 14 14 14 14 14 14 15 15 15 14 14 14 14 14 14 15
17 17 17 17 17 17 17 17 17 16 16 16 16 16 16 16 15 15 15 15 15 15 15 15 15 14 14 14 14 14 14 14 14 14 15 15 14 14 14 14 14 15 14
17 17 17 17 17 17 17 17 17 16 16 16 16 16 16 16 15 15 15 15 15 15 15 15 15 14 14 14 14 14 14 14 14 14 15 15 15 15 14 14 15 15 15
17 17 17 17 17 17 17 17 17 17 16 16 16 16 16 16 16 16 15 15 15 15 15 15 15 14 14 14 14 14 14 14 14 14 14 15 14 14 14 14 14 14 14
17 17 17 17 17 17 17 17 16 16 16 16 16 16 16 15 16 16 15 15 15 15 15 15 14 14 14 14 14 14 14 14 13 13 13 14 14 14 13 13 13 13 14
16 16 16 16 16 17 16 16 16 16 16 16 16 15 15 15 15 15 15 15 15 14 14 14 14 14 14 14 14 13 13 13 13 13 13 13 13 13 13 13 13 12 12
16 16 16 16 16 16 16 16 16 16 15 15 15 15 15 15 15 15 15 14 14 14 14 14 14 14 14 13 13 13 13 13 13 13 13 13 13 13 12 12 12 12 13
16 15 16 16 16 16 16 15 15 15 15 15 15 14 14 14 14 14 14 14 14 14 13 13 13 13 13 13 13 12 12 12 12 12 12 12 12 12 12 12 11 11 12
15 15 15 15 15 15 15 15 15 14 14 14 14 14 14 14 14 14 13 13 13 13 13 13 12 13 12 12 12 12 12 12 12 12 11 11 11 11 11 11 11 11 11
14 14 14 14 14 14 14 14 14 14 14 13 13 13 13 13 13 13 13 12 12 12 12 12 11 12 12 11 11 11 11 11 11 11 11 11 11 11 11 11 10 10 10
13 13 13 13 13 13 13 13 13 13 13 13 13 12 12 12 12 12 12 12 11 11 11 11 11 11 11 11 11 10 10 10 10 10 10 10 10 10 10 10 10 9 9
13 12 12 12 12 12 12 12 12 12 12 12 12 12 11 11 11 11 11 10 10 10 10 10 10 10 10 10 10 10 10 9 9 9 9 9 9 9 9 9 9 9 9
12 12 12 12 11 11 11 11 11 11 11 11 11 11 10 10 10 10 10 10 10 10 10 10 10 10 10 10 10 10 9 9 9 9 9 9 9 9 9 9 9 9 9
11 11 11 11 11 11 11 11 10 10 10 10 10 10 9 9 9 9 9 9 9 9 9 9 10 10 10 10 9 9 9 9 9 8 8 8 8 8 8 8 8 8 8
10 10 11 11 11 11 10 10 10 10 9 9 9 9 9 9 9 9 9 9 9 9 9 9 9 9 9 9 9 9 9 8 8 8 8 8 7 7 7 7 7 7 7
10 10 10 10 10 10 10 10 10 10 9 9 8 8 8 8 8 8 8 8 8 8 8 8 8 8 8 7 7 7 7 7 7 7 7 7 7 7 7 7 7 7 7
9 9 9 9 9 9 9 9 9 9 9 9 8 8 7 7 7 7 7 7 7 7 7 7 7 6 6 6 6 6 6 6 6 6 6 6 6 6 6 6 6 6 6
8 8 8 9 9 9 9 9 8 8 8 8 7 7 6 6 6 6 6 6 6 6 6 6 5 5 5 5 5 5 5 5 5 5 5 5 5 5 5 5 5 5 5
8 8 8 8 8 8 8 8 7 7 7 7 6 5 5 5 6 5 5 5 5 5 4 4 4 4 4 4 4 4 4 4 4 4 4 4 4 4 4 4 4 4 4
8 8 7 7 7 7 7 7 7 6 6 6 5 5 5 5 5 4 4 4 4 3 3 3 3 3 3 3 3 3 3 3 3 3 3 3 3 3 3 3 3 4 4
7 7 7 7 6 6 6 6 6 6 5 5 5 4 4 4 4 3 3 3 3 3 3 2 2 2 2 2 2 2 2 2 2 2 2 2 3 3 3 3 3 3 3
7 7 7 6 6 6 6 5 5 5 4 4 4 4 3 3 3 3 2 2 2 2 2 2 2 2 1 1 1 1 1 2 2 2 2 2 2 2 3 3 3 3 3
6 6 6 6 5 5 4 4 4 4 3 3 3 3 3 2 2 2 2 2 2 2 2 2 1 1 1 1 1 1 1 2 2 2 2 2 2 2 2 2 3 3 3
5 5 5 5 4 4 4 3 3 3 3 2 2 2 2 2 2 1 1 1 1 1 1 1 1 1 1 1 1 1 2 2 2 2 2 2 2 2 2 2 2 2 2
Wind_Speed
13 12 12 12 12 12 11 12 11 10 10 11 11 11 10 11 10 10 10 9 10 9 9 9 9 8 6 6 6 6 7 7 8 6 5 5 6 8 6 8 10 10 12
12 12 12 12 12 12 12 12 11 11 11 11 11 11 11 11 11 11 11 11 11 11 10 10 10 8 9 8 7 8 7 7 8 8 7 6 8 8 8 8 10 11 11
12 12 12 12 12 11 11 11 11 11 11 11 11 11 11 11 11 11 12 11 11 11 11 11 11 10 10 9 9 9 8 8 8 9 9 6 7 8 8 10 11 9 12
12 12 12 11 11 11 10 10 11 11 11 11 11 11 11 11 11 11 11 11 12 12 11 11 12 12 12 11 10 10 9 9 9 9 9 8 8 8 8 9 9 9 10
11 11 10 10 10 10 10 9 10 10 11 11 11 11 11 10 10 11 11 11 11 11 11 11 12 11 10 10 10 10 10 10 10 10 10 9 9 8 8 8 9 9 9
10 10 9 9 9 9 9 9 9 9 10 10 11 11 11 9 7 8 10 11 10 11 11 11 11 10 10 11 11 10 10 11 11 10 10 10 10 9 8 9 9 9 10
9 8 8 8 8 8 8 8 8 8 8 8 8 9 9 7 6 8 11 10 10 10 10 10 10 9 10 11 12 14 14 14 13 12 13 12 10 9 9 10 10 11 11
8 7 7 7 8 7 7 7 7 6 6 6 6 6 6 4 4 7 8 10 10 10 10 10 10 9 8 9 11 12 13 13 14 14 14 13 11 9 9 11 11 11 12
6 6 6 6 6 6 6 5 5 4 4 4 4 4 4 2 3 4 6 7 8 9 9 8 9 9 5 5 9 11 12 11 11 12 12 12 11 10 9 9 11 11 13
6 5 5 5 6 5 4 4 3 4 4 3 3 2 1 0 2 2 4 5 6 6 6 5 4 5 4 5 8 10 11 10 9 9 10 12 13 13 13 12 12 12 13
7 7 6 6 6 5 5 4 3 3 3 3 2 2 2 3 4 3 1 3 4 4 4 4 2 2 4 5 7 8 8 8 9 9 9 9 10 10 10 11 10 11 12
10 10 9 8 7 6 6 5 4 3 4 3 3 3 3 4 5 4 2 2 5 3 3 3 1 0 3 5 6 5 5 6 7 7 8 8 8 8 8 8 9 11 12
11 11 10 10 9 8 7 6 5 4 3 3 3 2 3 3 4 4 2 1 3 3 2 2 1 2 4 5 5 6 6 6 6 7 7 7 7 7 7 7 9 10 13
11 10 9 9 9 9 7 6 6 5 4 3 3 3 3 3 4 3 2 1 1 2 2 2 5 6 5 4 3 5 5 4 5 6 7 7 7 6 7 7 8 8 9
10 9 8 9 8 8 9 8 7 8 7 5 5 4 4 4 6 7 5 4 4 4 4 4 3 2 3 3 4 4 4 5 6 6 7 7 7 7 8 7 7 8 10
9 8 7 7 6 6 7 8 12 9 10 11 10 8 7 8 6 6 6 5 5 5 5 4 4 4 5 5 5 5 5 5 6 6 7 7 8 8 9 8 8 9 10
9 8 6 6 6 5 5 4 5 6 8 9 9 9 7 6 5 5 5 6 6 6 5 5 5 5 6 7 7 7 7 7 6 8 8 8 9 9 10 10 10 10 11
9 8 7 6 6 5 5 4 4 3 3 3 6 8 5 3 2 4 6 7 4 3 4 5 6 6 6 7 8 8 8 8 8 8 9 9 10 10 10 10 10 11 10
8 7 6 5 5 5 5 4 4 4 4 4 3 3 3 1 3 3 6 5 6 6 6 6 7 7 7 8 8 8 9 9 10 10 10 10 10 10 10 10 11 11 11
7 8 6 4 5 5 4 5 5 4 4 4 5 6 6 6 5 4 5 6 6 7 7 7 7 8 8 8 9 9 9 9 10 10 10 10 10 10 11 11 11 11 11
5 5 3 4 5 5 5 5 5 5 5 5 5 6 7 7 6 7 7 7 7 7 8 8 8 8 8 8 9 10 11 10 10 10 10 10 11 10 10 10 11 11 12
4 4 5 5 5 5 5 5 5 5 5 6 5 3 2 6 7 7 7 7 8 8 8 8 8 8 8 8 9 10 10 10 10 10 11 11 11 11 10 10 10 11 11
4 4 4 4 4 3 4 5 5 6 6 6 6 6 6 7 7 7 8 8 8 8 8 8 8 8 8 9 9 9 9 10 10 11 12 12 11 10 10 10 12 13 13
4 4 4 4 4 5 5 5 5 6 6 6 6 6 7 7 7 8 8 8 8 8 8 8 9 10 12 11 10 10 10 11 13 12 13 12 12 11 10 11 12 13 12
4 4 4 4 5 5 5 5 5 6 6 6 7 7 7 7 7 8 8 8 9 9 10 10 9 10 12 14 12 12 14 15 14 13 13 11 12 12 11 12 11 12 12
4 4 4 4 5 5 4 5 5 6 6 7 7 7 7 7 7 8 8 8 9 9 9 9 11 13 14 13 13 16 15 15 15 14 13 10 10 10 10 9 12 11 12
Wind_Direction
188 190 190 194 197 197 201 206 207 203 202 204 206 207 210 213 213 215 222 214 220 222 222 221 225 240 236 232 232 237 241 247 256 256 235 217 220 252 227 235 242 239 236
184 185 189 192 195 198 202 206 206 204 204 206 208 211 214 216 215 218 223 220 222 225 225 225 226 223 226 240 239 238 240 244 251 256 250 229 219 233 240 246 250 245 254
178 182 185 189 193 199 202 204 204 204 206 207 208 212 216 218 219 222 225 226 227 229 228 227 229 229 228 230 233 238 236 232 237 248 248 242 237 232 234 240 247 251 258
176 181 184 190 193 195 198 200 202 204 207 207 210 215 219 222 224 226 226 230 231 232 232 231 232 230 231 233 232 235 239 241 235 243 248 242 236 231 236 247 247 234 245
177 181 185 187 190 193 196 199 201 206 210 211 215 219 223 225 227 227 229 230 230 232 233 234 236 237 242 240 243 235 232 236 239 239 244 246 242 236 238 248 256 259 250
178 182 184 184 186 190 192 195 199 206 213 214 218 221 223 229 212 213 231 237 233 235 236 235 237 230 231 231 248 257 257 245 247 251 252 251 254 252 254 259 262 262 265
175 179 179 182 184 189 192 192 197 203 208 211 217 222 226 228 191 205 224 241 243 240 238 237 239 232 220 231 227 231 242 247 250 256 261 262 263 258 260 257 258 265 271
169 172 176 179 179 179 183 187 191 194 198 204 214 222 227 224 187 212 222 233 243 243 241 239 240 242 236 238 242 239 240 237 234 237 249 259 264 271 262 260 269 265 264
151 155 163 170 167 167 173 174 176 179 191 200 206 216 221 216 166 201 222 234 240 244 246 246 246 244 238 241 248 250 251 250 240 235 243 254 266 269 263 261 260 261 265
120 120 121 130 136 140 142 144 148 161 172 179 167 172 190 197 106 180 228 242 248 248 244 240 239 251 248 231 247 253 255 257 261 251 239 245 251 248 234 240 253 259 266
101 102 103 107 109 108 108 110 116 121 124 128 128 117 87 55 83 83 281 266 268 265 264 258 244 211 244 245 252 258 266 276 269 264 259 253 249 248 242 237 242 251 261
94 91 88 86 89 96 98 96 97 107 119 121 115 102 92 81 63 70 58 318 315 291 288 298 350 140 252 249 248 257 276 277 267 266 266 267 266 262 259 257 254 255 259
87 83 82 79 74 74 82 88 92 89 86 88 90 84 75 73 90 97 112 213 285 291 312 9 356 256 254 239 218 233 248 255 263 265 267 270 274 279 280 273 265 259 259
85 82 81 79 76 70 61 61 62 58 59 60 55 52 57 58 35 22 5 1 214 258 289 213 206 222 242 260 236 227 243 262 275 280 284 284 282 276 271 272 274 273 272
81 79 79 78 76 73 67 51 55 53 43 35 40 41 31 37 28 9 356 354 347 350 321 289 280 271 260 257 261 264 268 265 261 268 273 275 275 273 271 271 272 276 276
80 76 75 76 73 75 81 81 64 70 76 67 51 40 58 55 35 19 14 359 336 320 301 292 295 295 296 297 295 287 279 279 283 279 276 277 278 278 277 274 270 270 273
69 64 64 64 65 62 64 67 81 92 96 89 83 70 58 45 31 9 347 323 289 279 281 297 304 308 307 303 298 297 297 298 295 285 282 280 279 279 278 277 275 275 276
68 65 57 59 55 52 47 41 38 34 48 71 100 98 85 58 11 332 314 304 291 275 317 320 317 315 311 310 309 308 304 300 294 291 288 285 284 283 281 280 280 282 285
60 59 54 53 53 50 43 37 35 29 14 12 22 77 83 260 228 263 295 329 336 331 329 326 322 320 318 315 313 310 304 301 300 297 292 290 289 287 285 285 286 287 283
66 51 35 42 46 42 33 26 23 16 9 8 5 7 357 336 339 347 342 345 338 336 331 325 324 320 316 313 311 308 304 302 301 298 297 296 294 291 289 289 289 288 286
61 67 48 31 39 30 22 15 11 5 1 359 3 30 353 333 341 346 343 345 341 336 333 328 322 320 319 316 314 310 308 308 309 307 305 302 298 294 290 287 286 285 284
43 42 36 33 31 24 10 4 1 1 359 355 353 11 335 329 347 347 346 342 339 336 334 328 324 324 327 327 322 317 314 313 314 315 312 307 301 294 291 288 287 287 287
35 37 37 32 25 19 357 9 7 3 2 0 354 352 353 353 349 349 346 344 342 338 338 333 326 325 331 327 321 317 315 317 318 316 311 306 300 295 292 288 285 285 284
30 25 26 25 17 11 14 13 10 8 7 4 359 356 355 353 352 350 346 344 339 337 337 334 328 327 327 325 322 321 329 331 323 312 305 300 297 293 290 286 286 287 287
27 20 17 19 17 18 19 14 12 10 7 5 1 358 357 354 351 349 347 343 338 338 338 335 331 330 328 326 327 329 337 332 320 311 302 293 289 289 288 287 288 291 290
24 20 20 25 29 23 18 16 15 12 9 6 5 1 356 353 354 352 350 347 341 338 334 332 333 332 329 328 335 335 330 323 317 309 299 291 291 293 298 296 296 295 296
Height
1507 1510 1514 1518 1522 1525 1528 1532 1534 1537 1539 1542 1544 1546 1548 1549 1551 1552 1553 1554 1555 1556 1556 1557 1558 1559 1561 1562 1562 1563 1564 1565 1565 1565 1565 1565 1563 1564 1564 1564 1564 1563 1564
1505 1509 1511 1515 1519 1522 1525 1529 1531 1534 1536 1538 1541 1543 1545 1546 1548 1549 1550 1551 1552 1553 1553 1554 1555 1556 1556 1558 1559 1560 1560 1561 1561 1562 1562 1561 1560 1560 1560 1559 1561 1561 1560
1504 1507 1510 1513 1516 1519 1522 1525 1528 1531 1533 1535 1538 1540 1541 1543 1544 1545 1547 1548 1549 1550 1550 1551 1551 1552 1552 1554 1554 1556 1556 1557 1557 1558 1558 1558 1557 1557 1556 1556 1556 1555 1555
1502 1505 1508 1511 1514 1517 1520 1522 1525 1527 1530 1532 1534 1536 1538 1539 1541 1542 1543 1544 1545 1546 1546 1547 1547 1548 1548 1549 1550 1550 1551 1552 1553 1553 1553 1553 1553 1553 1552 1552 1552 1551 1550
1501 1503 1506 1509 1512 1514 1517 1519 1522 1524 1526 1528 1530 1532 1534 1535 1537 1538 1539 1540 1541 1541 1542 1542 1543 1543 1544 1545 1546 1547 1547 1547 1548 1548 1548 1548 1548 1548 1548 1548 1548 1547 1546
1499 1502 1504 1507 1509 1512 1514 1516 1518 1520 1522 1524 1526 1528 1529 1531 1532 1533 1535 1536 1536 1536 1537 1537 1538 1538 1538 1539 1540 1540 1541 1542 1542 1543 1543 1543 1543 1543 1543 1542 1542 1542 1541
1497 1500 1502 1505 1507 1509 1511 1513 1515 1517 1519 1520 1522 1524 1525 1526 1527 1528 1529 1530 1531 1531 1532 1532 1533 1533 1533 1533 1533 1534 1534 1535 1536 1536 1537 1537 1537 1537 1537 1537 1536 1535 1534
1496 1498 1500 1503 1505 1506 1508 1510 1512 1513 1515 1516 1518 1520 1521 1521 1522 1523 1524 1525 1525 1526 1526 1527 1527 1527 1528 1528 1528 1528 1528 1528 1528 1529 1529 1529 1530 1530 1530 1530 1529 1528 1526
1494 1496 1498 1500 1502 1504 1505 1507 1508 1510 1511 1513 1514 1515 1516 1517 1518 1519 1519 1520 1520 1520 1521 1521 1521 1521 1521 1522 1522 1522 1522 1522 1522 1522 1522 1522 1523 1523 1523 1523 1522 1522 1520
1493 1495 1497 1499 1500 1502 1503 1505 1506 1507 1508 1510 1511 1512 1513 1513 1514 1514 1515 1515 1515 1516 1516 1516 1515 1516 1515 1515 1516 1516 1516 1516 1517 1516 1515 1515 1515 1515 1515 1514 1514 1514 1513
1493 1495 1496 1498 1499 1501 1502 1503 1504 1506 1507 1507 1508 1509 1510 1510 1510 1511 1511 1511 1511 1511 1511 1511 1511 1510 1510 1510 1510 1510 1510 1510 1510 1510 1509 1508 1508 1507 1507 1506 1506 1506 1505
1494 1495 1497 1498 1499 1500 1501 1502 1504 1505 1506 1506 1507 1508 1508 1508 1508 1508 1508 1508 1508 1508 1507 1507 1506 1505 1505 1505 1505 1504 1504 1504 1504 1504 1503 1502 1502 1501 1500 1500 1498 1498 1496
1495 1496 1498 1499 1500 1501 1502 1503 1504 1504 1506 1506 1507 1507 1508 1507 1507 1506 1506 1505 1505 1504 1504 1503 1502 1501 1501 1500 1500 1500 1499 1499 1499 1498 1497 1497 1496 1495 1493 1492 1491 1490 1488
1497 1498 1499 1501 1501 1502 1503 1504 1504 1505 1506 1506 1506 1507 1507 1506 1506 1505 1504 1504 1503 1503 1502 1500 1499 1499 1498 1497 1496 1496 1495 1495 1494 1494 1492 1491 1490 1489 1488 1487 1485 1484 1483
1499 1500 1502 1503 1503 1503 1504 1504 1504 1504 1505 1506 1506 1506 1505 1505 1504 1503 1502 1501 1501 1500 1499 1499 1498 1498 1496 1495 1495 1494 1493 1492 1490 1489 1488 1487 1485 1484 1483 1481 1480 1478 1477
1502 1503 1504 1505 1505 1506 1506 1506 1505 1505 1505 1505 1505 1505 1504 1503 1502 1501 1501 1500 1499 1498 1497 1497 1497 1495 1495 1494 1492 1491 1490 1488 1487 1486 1484 1483 1481 1479 1478 1476 1474 1473 1471
1504 1505 1506 1507 1507 1508 1508 1508 1507 1506 1506 1505 1504 1503 1503 1502 1501 1500 1499 1498 1497 1496 1496 1495 1494 1493 1492 1490 1489 1488 1486 1485 1483 1481 1480 1478 1476 1474 1473 1471 1469 1467 1465
1506 1507 1507 1508 1508 1508 1508 1508 1508 1507 1507 1506 1504 1503 1501 1500 1499 1498 1497 1496 1496 1495 1494 1493 1491 1490 1488 1487 1485 1483 1482 1480 1478 1477 1475 1473 1471 1469 1467 1465 1463 1461 1459
1508 1509 1509 1509 1509 1509 1509 1508 1508 1507 1507 1506 1505 1503 1501 1499 1498 1497 1495 1495 1494 1493 1492 1490 1488 1487 1485 1483 1481 1479 1477 1475 1473 1471 1469 1467 1465 1463 1461 1459 1457 1455 1453
1510 1510 1510 1511 1511 1510 1510 1509 1508 1508 1507 1505 1504 1502 1500 1499 1498 1497 1495 1493 1492 1490 1489 1487 1485 1483 1481 1479 1477 1475 1472 1470 1468 1466 1464 1462 1459 1457 1455 1453 1451 1449 1446
1513 1512 1512 1512 1512 1511 1510 1509 1508 1507 1506 1505 1503 1501 1499 1498 1497 1495 1494 1492 1490 1488 1486 1484 1481 1479 1477 1475 1473 1470 1468 1466 1463 1461 1458 1456 1453 1451 1448 1446 1444 1442 1440
1514 1514 1513 1513 1512 1511 1510 1509 1508 1507 1505 1504 1502 1500 1498 1497 1496 1494 1491 1489 1487 1485 1483 1480 1478 1476 1474 1471 1469 1466 1464 1461 1458 1456 1453 1450 1447 1444 1442 1440 1438 1436 1434
1515 1514 1514 1513 1512 1510 1510 1509 1507 1506 1504 1503 1501 1500 1498 1496 1494 1492 1489 1487 1485 1482 1479 1477 1474 1472 1470 1467 1464 1462 1459 1456 1453 1450 1447 1444 1441 1439 1436 1434 1432 1430 1428
1515 1515 1514 1513 1512 1511 1509 1508 1507 1505 1503 1502 1500 1498 1496 1494 1492 1490 1487 1485 1482 1479 1476 1474 1471 1469 1466 1463 1460 1458 1455 1451 1448 1445 1442 1438 1436 1433 1431 1428 1426 1424 1422
1516 1515 1514 1513 1511 1510 1509 1507 1506 1504 1503 1501 1499 1497 1495 1493 1490 1488 1485 1482 1479 1477 1474 1471 1468 1465 1462 1459 1456 1453 1449 1446 1443 1439 1436 1433 1431 1428 1426 1423 1421 1419 1417
1515 1514 1513 1512 1511 1509 1508 1507 1506 1504 1502 1500 1498 1496 1494 1492 1489 1486 1484 1480 1477 1474 1472 1469 1466 1462 1459 1456 1452 1449 1445 1442 1438 1435 1432 1429 1426 1424 1421 1419 1416 1414 1412